When you browse on this site, cookies collect data to enhance your experience and personalize the content and advertising you see.
Visit our Privacy Policy to learn more. By continuing to use the site, you agree to this use of cookies and data.
  • In Hungary
  • List of Countries
  • For 7 days
  • Water Temperature
  • Satellite Maps
  • Weather Map
  • News
  • Weather Widgets
  • user-avatar
    Login

    Hourly Weather Nowojowice

    Today, 9 December, Sunday

    Time Temperature Precipitation Wind Pressure Humidity
    00:00 +4°C° 0 mm 6 mps 739 mmHg 76%
    01:00 +4°C° 0 mm 6 mps 738 mmHg 77%
    02:00 +4°C° 0.1 mm 6 mps 737 mmHg 77%
    03:00 +4°C° 0.1 mm 6 mps 736 mmHg 77%
    04:00 +4°C° 0.1 mm 6 mps 735 mmHg 77%
    05:00 +4°C° 0.7 mm 6 mps 734 mmHg 78%
    06:00 +5°C° 0.7 mm 7 mps 733 mmHg 79%
    07:00 +5°C° 0 mm 6 mps 732 mmHg 79%
    08:00 +5°C° 0.1 mm 6 mps 732 mmHg 78%
    09:00 +6°C° 0.1 mm 7 mps 732 mmHg 76%
    10:00 +6°C° 0.1 mm 7 mps 732 mmHg 74%
    11:00 +6°C° 0.2 mm 7 mps 733 mmHg 73%
    12:00 +6°C° 0.2 mm 7 mps 733 mmHg 71%
    13:00 +6°C° 0 mm 7 mps 733 mmHg 69%
    14:00 +7°C° 0.1 mm 6 mps 733 mmHg 70%
    15:00 +7°C° 0.1 mm 6 mps 734 mmHg 72%
    16:00 +6°C° 0.1 mm 5 mps 734 mmHg 73%
    17:00 +6°C° 0.1 mm 5 mps 734 mmHg 75%
    18:00 +6°C° 0.1 mm 5 mps 735 mmHg 76%
    19:00 +5°C° 0.1 mm 5 mps 735 mmHg 78%
    20:00 +5°C° 0.1 mm 5 mps 736 mmHg 79%
    21:00 +5°C° 0.1 mm 5 mps 736 mmHg 80%
    22:00 +5°C° 0.1 mm 5 mps 736 mmHg 81%
    23:00 +4°C° 0.1 mm 6 mps 737 mmHg 79%

    Tomorrow, 10 December, Monday

    Time Temperature Precipitation Wind Pressure Humidity
    00:00 +4°C° 0.1 mm 6 mps 737 mmHg 78%
    01:00 +4°C° 0.1 mm 7 mps 737 mmHg 77%
    02:00 +3°C° 0.1 mm 7 mps 738 mmHg 75%
    03:00 +2°C° 0.1 mm 8 mps 738 mmHg 74%
    04:00 +2°C° 0.1 mm 8 mps 739 mmHg 73%
    05:00 +2°C° 0.2 mm 8 mps 739 mmHg 73%
    06:00 +1°C° 0.2 mm 8 mps 740 mmHg 73%
    07:00 +1°C° 0.2 mm 8 mps 741 mmHg 72%
    08:00 +1°C° 0.1 mm 8 mps 741 mmHg 71%
    09:00 +2°C° 0.1 mm 8 mps 742 mmHg 71%
    10:00 +2°C° 0.1 mm 8 mps 742 mmHg 70%
    11:00 +2°C° 0.1 mm 8 mps 743 mmHg 68%
    12:00 +2°C° 0.1 mm 8 mps 743 mmHg 66%
    13:00 +2°C° 0.1 mm 8 mps 743 mmHg 64%
    14:00 +2°C° 0.1 mm 7 mps 743 mmHg 67%
    15:00 +2°C° 0.1 mm 7 mps 744 mmHg 69%
    16:00 +1°C° 0.1 mm 6 mps 744 mmHg 71%
    17:00 +1°C° 0 mm 6 mps 744 mmHg 73%
    18:00 0°C° 0 mm 5 mps 744 mmHg 74%
    19:00 0°C° 0 mm 5 mps 744 mmHg 76%
    20:00 0°C° 0 mm 5 mps 744 mmHg 77%
    21:00 0°C° 0 mm 5 mps 744 mmHg 78%
    22:00 -1°C° 0 mm 5 mps 744 mmHg 79%
    23:00 0°C° 0 mm 5 mps 744 mmHg 81%

    Day after tomorrow, 11 December, Tuesday

    Time Temperature Precipitation Wind Pressure Humidity
    00:00 0°C° 0 mm 5 mps 744 mmHg 82%
    01:00 0°C° 0 mm 5 mps 744 mmHg 83%
    02:00 0°C° 0.1 mm 5 mps 744 mmHg 83%
    03:00 0°C° 0.1 mm 5 mps 744 mmHg 83%
    04:00 0°C° 0.1 mm 5 mps 743 mmHg 83%
    05:00 0°C° 0.2 mm 5 mps 743 mmHg 83%
    06:00 0°C° 0.2 mm 5 mps 743 mmHg 83%
    07:00 0°C° 0.2 mm 5 mps 743 mmHg 82%
    08:00 +1°C° 0.3 mm 5 mps 743 mmHg 82%
    09:00 +1°C° 0.3 mm 5 mps 743 mmHg 82%
    10:00 +1°C° 0.3 mm 5 mps 743 mmHg 82%
    11:00 +1°C° 0.3 mm 5 mps 743 mmHg 82%
    12:00 +1°C° 0.3 mm 5 mps 743 mmHg 83%
    13:00 +1°C° 0.3 mm 5 mps 743 mmHg 83%
    14:00 +1°C° 0.3 mm 5 mps 744 mmHg 85%
    15:00 0°C° 0.3 mm 5 mps 744 mmHg 87%
    16:00 0°C° 0.3 mm 4 mps 744 mmHg 88%
    17:00 0°C° 0.3 mm 5 mps 745 mmHg 89%
    18:00 0°C° 0.3 mm 5 mps 745 mmHg 90%
    19:00 0°C° 0.3 mm 5 mps 745 mmHg 91%
    20:00 0°C° 0.2 mm 4 mps 746 mmHg 92%
    21:00 0°C° 0.2 mm 4 mps 746 mmHg 93%
    22:00 0°C° 0.2 mm 4 mps 747 mmHg 94%
    23:00 0°C° 0.3 mm 4 mps 747 mmHg 95%

    12 December, Wednesday

    Time Temperature Precipitation Wind Pressure Humidity
    00:00 -1°C° 0.3 mm 4 mps 748 mmHg 95%
    01:00 -1°C° 0.3 mm 4 mps 748 mmHg 95%
    02:00 -1°C° 0.3 mm 4 mps 748 mmHg 95%
    03:00 -1°C° 0.3 mm 4 mps 749 mmHg 95%
    04:00 -1°C° 0.3 mm 4 mps 749 mmHg 95%
    05:00 -1°C° 0.2 mm 4 mps 749 mmHg 94%
    06:00 -1°C° 0.2 mm 4 mps 750 mmHg 94%
    07:00 -2°C° 0.2 mm 4 mps 750 mmHg 94%
    08:00 -2°C° 0.2 mm 4 mps 750 mmHg 94%
    09:00 0°C° 0.2 mm 3 mps 751 mmHg 94%
    10:00 0°C° 0.2 mm 3 mps 751 mmHg 94%
    11:00 0°C° 0.1 mm 3 mps 751 mmHg 93%
    12:00 0°C° 0.1 mm 3 mps 751 mmHg 92%
    13:00 +1°C° 0.1 mm 2 mps 751 mmHg 91%
    14:00 +1°C° 0 mm 2 mps 751 mmHg 91%
    15:00 +1°C° 0 mm 2 mps 751 mmHg 92%
    16:00 +1°C° 0 mm 1 mps 752 mmHg 92%
    17:00 +1°C° 0 mm 1 mps 752 mmHg 92%
    18:00 +1°C° 0 mm 1 mps 752 mmHg 92%
    19:00 +1°C° 0 mm 1 mps 752 mmHg 92%
    20:00 0°C° 0 mm 1 mps 752 mmHg 92%
    21:00 0°C° 0 mm 1 mps 752 mmHg 92%
    22:00 -1°C° 0 mm 1 mps 753 mmHg 92%
    23:00 -1°C° 0 mm 1 mps 753 mmHg 92%

    13 December, Thursday

    Time Temperature Precipitation Wind Pressure Humidity
    00:00 -1°C° 0 mm 1 mps 753 mmHg 92%
    01:00 -1°C° 0 mm 1 mps 753 mmHg 92%
    02:00 -2°C° 0 mm 0 mps 753 mmHg 92%
    03:00 -3°C° 0 mm 0 mps 753 mmHg 92%
    04:00 -3°C° 0 mm 0 mps 752 mmHg 92%
    05:00 -3°C° 0 mm 0 mps 752 mmHg 92%
    06:00 -2°C° 0 mm 0 mps 752 mmHg 91%
    07:00 -2°C° 0 mm 0 mps 752 mmHg 91%
    08:00 -2°C° 0 mm 0 mps 752 mmHg 90%
    09:00 -1°C° 0 mm 0 mps 753 mmHg 88%
    10:00 -1°C° 0 mm 0 mps 753 mmHg 87%
    11:00 +1°C° 0 mm 1 mps 752 mmHg 85%
    12:00 +1°C° 0 mm 1 mps 752 mmHg 84%
    13:00 +1°C° 0 mm 1 mps 752 mmHg 82%
    14:00 +1°C° 0 mm 1 mps 752 mmHg 84%
    15:00 0°C° 0 mm 1 mps 751 mmHg 87%
    16:00 -1°C° 0 mm 1 mps 751 mmHg 90%
    17:00 -1°C° 0 mm 1 mps 751 mmHg 90%
    18:00 -1°C° 0 mm 1 mps 751 mmHg 90%
    19:00 -1°C° 0 mm 1 mps 751 mmHg 91%
    20:00 -1°C° 0 mm 1 mps 751 mmHg 91%
    21:00 -2°C° 0 mm 1 mps 751 mmHg 91%
    22:00 -2°C° 0 mm 1 mps 751 mmHg 91%
    23:00 -2°C° 0 mm 1 mps 751 mmHg 91%

    14 December, Friday

    Time Temperature Precipitation Wind Pressure Humidity
    00:00 -2°C° 0 mm 1 mps 751 mmHg 91%
    01:00 -2°C° 0 mm 1 mps 751 mmHg 91%
    02:00 -2°C° 0 mm 1 mps 751 mmHg 91%
    03:00 -2°C° 0 mm 1 mps 751 mmHg 91%
    04:00 -2°C° 0 mm 1 mps 751 mmHg 91%
    05:00 -2°C° 0 mm 1 mps 751 mmHg 91%
    06:00 -3°C° 0 mm 1 mps 751 mmHg 91%
    07:00 -3°C° 0 mm 1 mps 751 mmHg 91%
    08:00 -2°C° 0 mm 1 mps 751 mmHg 89%
    09:00 -1°C° 0 mm 1 mps 751 mmHg 87%
    10:00 -1°C° 0 mm 1 mps 751 mmHg 86%
    11:00 0°C° 0 mm 1 mps 751 mmHg 84%
    12:00 0°C° 0 mm 1 mps 751 mmHg 83%
    13:00 +1°C° 0 mm 1 mps 751 mmHg 81%
    14:00 0°C° 0 mm 1 mps 751 mmHg 84%
    15:00 -3°C° 0 mm 2 mps 751 mmHg 86%
    16:00 -3°C° 0 mm 2 mps 751 mmHg 89%
    17:00 -4°C° 0 mm 2 mps 751 mmHg 89%
    18:00 -4°C° 0 mm 2 mps 750 mmHg 89%
    19:00 -4°C° 0 mm 2 mps 750 mmHg 90%
    20:00 -4°C° 0 mm 2 mps 750 mmHg 89%
    21:00 -4°C° 0 mm 2 mps 751 mmHg 89%
    22:00 -4°C° 0 mm 2 mps 751 mmHg 89%
    23:00 -4°C° 0 mm 2 mps 751 mmHg 89%
    Show more